User: anonymous   Login
Location: Newark
(52.4787°S, 179.0532°W)
Time: 22:07:26
(UTC+00:00)
Language:

ITUPSAT 1 - Orbit

View from above orbital plane
View from above orbital plane
View from above satellite
View from above satellite

Ground track
Ground track

The orbit data is extracted from the following two-line orbital elements,

1 35935U 09051E   19339.45181053  .00000083  00000-0  30190-4 0  9990
2 35935  98.6117 152.6122 0008477  23.4661 336.6921 14.55572279541339
Epoch (UTC): 05 December 2019 10:50:36
Eccentricity: 0.0008477
inclination: 98.6117°
perigee height: 701 km
apogee height: 713 km
right ascension of ascending node: 152.6122°
argument of perigee: 23.4661°
revolutions per day: 14.55572279
mean anomaly at epoch: 336.6921°
orbit number at epoch: 54133

The dashed part of the orbit path shows where the satellite is in the earth's shadow,  

DLR